Date,TemperatureHighF,TemperatureAvgF,TemperatureLowF,DewpointHighF,DewpointAvgF,DewpointLowF,HumidityHigh,HumidityAvg,HumidityLow,PressureMaxIn,PressureMinIn,WindSpeedMaxMPH,WindSpeedAvgMPH,GustSpeedMaxMPH,PrecipitationSumIn
2013-1-1,32,21,3,28,15,1,90,78,63,30.04,29.81,6,2,17,0.00
2013-1-2,22,10,0,18,5,-5,92,81,63,30.31,30.01,5,1,16,0.00
2013-1-3,15,5,-7,13,1,-11,90,81,65,30.32,30.04,1,0,4,0.00
2013-1-4,33,28,15,25,22,13,94,78,68,30.04,29.91,6,1,19,0.00
2013-1-5,33,28,20,26,21,16,87,76,56,30.29,29.97,6,2,17,0.00
2013-1-6,35,28,22,31,25,19,95,90,78,30.21,29.96,2,0,7,0.03
2013-1-7,34,23,8,31,20,6,92,87,83,30.44,30.04,4,1,12,0.05
2013-1-8,37,19,4,26,14,1,92,83,58,30.45,30.33,2,0,7,0.02
2013-1-9,41,25,9,34,20,7,92,83,62,30.44,30.04,7,1,22,0.11
2013-1-10,38,32,21,31,25,19,92,75,61,30.60,30.24,7,2,19,0.18
2013-1-11,32,27,19,31,25,17,96,91,82,30.58,30.15,1,0,3,0.02
2013-1-12,43,34,32,41,33,31,96,96,88,30.19,30.12,3,0,5,0.01
2013-1-13,39,36,33,38,35,32,97,97,96,30.16,29.96,1,0,4,0.01
2013-1-14,43,35,30,42,30,23,97,84,67,30.38,29.92,6,2,24,0.03
2013-1-15,32,29,27,25,23,20,86,76,65,30.40,30.27,3,0,9,0.01
2013-1-16,30,27,18,28,24,16,94,91,85,30.27,29.87,1,0,4,0.00
2013-1-17,32,24,17,29,17,5,96,74,54,30.22,29.88,6,1,16,0.00
2013-1-18,19,13,5,10,4,-4,86,67,50,30.47,30.16,4,1,15,0.00
2013-1-19,43,31,16,29,21,11,80,68,47,30.29,29.79,2,0,8,0.08
2013-1-20,43,31,16,33,22,12,92,69,49,30.06,29.52,9,3,27,0.07
2013-1-21,23,17,10,17,12,4,90,80,64,30.09,29.86,4,0,11,0.03
2013-1-22,14,10,5,10,3,-3,91,75,55,30.19,29.85,4,1,18,0.00
2013-1-23,5,-2,-11,-3,-9,-15,86,73,56,30.29,30.18,7,1,19,0.00
2013-1-24,9,-2,-16,0,-9,-20,85,74,52,30.51,30.26,7,2,16,0.00
2013-1-25,12,6,-2,7,-2,-8,88,71,55,30.53,30.16,5,1,9,0.00
2013-1-26,16,6,-2,6,1,-5,90,79,53,30.44,30.15,8,1,19,0.00
2013-1-27,19,7,-3,9,1,-6,89,76,50,30.61,30.43,2,0,9,0.00
2013-1-28,26,20,15,25,16,7,94,83,67,30.55,30.01,1,0,5,0.00
2013-1-29,32,30,26,31,28,25,96,95,93,30.18,30.02,1,0,2,0.01
2013-1-30,43,36,32,40,35,31,97,96,96,30.03,29.32,1,0,3,1.05
2013-1-31,48,29,23,47,20,14,97,70,60,29.65,29.24,9,4,28,0.88
2013-2-1,22,19,12,15,11,4,89,73,63,30.21,29.65,7,3,21,0.01
2013-2-2,21,13,5,13,8,1,90,80,61,30.25,30.09,4,0,8,0.00
2013-2-3,25,14,0,15,9,-3,90,80,63,30.09,29.84,3,0,8,0.00
2013-2-4,20,16,8,16,12,5,91,82,67,29.99,29.85,6,1,17,0.00
2013-2-5,23,14,0,14,7,-3,90,76,57,30.08,29.94,3,0,5,0.00
2013-2-6,27,20,10,23,12,1,93,74,38,30.42,29.95,7,1,27,0.00
2013-2-7,24,15,2,9,4,-2,88,65,44,30.59,30.39,5,1,10,0.00
2013-2-8,28,24,21,23,18,7,92,78,53,30.39,29.90,5,2,12,0.00
2013-2-9,23,16,3,21,9,-2,93,75,57,30.46,29.94,6,1,17,0.00
2013-2-10,28,11,-7,12,3,-11,88,71,37,30.56,30.32,2,0,6,0.00
2013-2-11,39,28,15,36,24,10,95,86,68,30.31,29.69,5,0,18,0.45
2013-2-12,33,32,29,29,28,25,91,85,78,29.97,29.73,8,3,24,0.22
2013-2-13,36,29,22,27,23,19,89,79,56,29.93,29.78,2,0,6,0.03
2013-2-14,34,26,15,27,21,13,94,82,66,30.00,29.79,4,0,8,0.01
2013-2-15,40,33,28,32,27,23,95,79,52,30.05,29.90,5,1,17,0.12
2013-2-16,29,24,18,24,14,7,87,67,49,30.06,29.92,4,1,13,0.01
2013-2-17,19,13,8,8,2,-3,75,62,46,30.06,29.83,9,3,25,0.00
2013-2-18,22,11,1,8,1,-6,79,64,46,30.31,30.06,5,2,16,0.00
2013-2-19,31,23,10,30,18,6,95,82,59,30.20,29.71,2,0,7,0.00
2013-2-20,27,23,20,24,17,12,89,77,58,29.94,29.75,5,2,23,0.00
2013-2-21,19,14,10,16,10,4,89,81,72,30.49,29.93,7,2,22,0.00
2013-2-22,34,22,2,23,15,-1,90,75,60,30.51,30.26,5,1,10,0.01
2013-2-23,34,32,30,31,28,23,96,87,71,30.26,29.90,2,0,7,0.01
2013-2-24,33,31,28,31,28,25,96,89,78,30.03,29.86,6,2,18,0.08
2013-2-25,38,31,24,31,28,22,94,87,76,30.29,30.03,4,1,14,0.22
2013-2-26,41,30,16,31,24,14,94,79,58,30.35,30.04,6,2,14,0.04
2013-2-27,38,34,30,35,32,27,95,90,75,30.06,29.61,4,1,14,0.62
2013-2-28,39,34,30,35,32,29,96,92,79,29.67,29.59,2,0,6,0.44
2013-3-1,37,31,25,31,27,23,96,87,74,29.86,29.68,5,1,17,0.02
2013-3-2,28,24,20,23,20,16,87,82,73,29.88,29.82,5,2,16,0.01
2013-3-3,27,21,17,20,16,13,88,81,70,29.86,29.79,7,2,16,0.00
2013-3-4,25,24,21,22,20,18,91,85,78,29.99,29.85,7,3,20,0.00
2013-3-5,36,27,21,26,21,17,92,78,64,30.14,30.00,3,1,11,0.00
2013-3-6,40,31,17,30,24,15,94,76,61,30.19,30.08,7,1,17,0.01
2013-3-7,37,33,28,29,25,21,93,73,59,30.22,30.16,4,1,9,0.01
2013-3-8,43,33,26,29,25,21,92,75,51,30.36,30.17,6,2,17,0.21
2013-3-9,47,32,17,29,23,15,93,72,45,30.41,30.34,3,0,8,0.03
2013-3-10,54,37,21,30,26,19,94,69,34,30.37,30.20,6,1,11,0.00
2013-3-11,48,38,30,38,32,27,90,78,60,30.24,29.95,3,0,8,0.00
2013-3-12,46,41,34,43,38,29,96,89,79,29.96,29.78,3,0,11,0.86
2013-3-13,40,33,27,30,27,19,93,79,53,29.92,29.83,5,1,17,0.01
2013-3-14,26,22,17,20,15,8,86,75,56,29.98,29.88,7,3,23,0.00
2013-4-7,61,55,45,44,35,26,72,49,35,30.06,29.86,8,3,16,0.04
2013-4-8,57,46,39,41,36,33,85,68,45,30.17,29.94,4,1,10,0.01
2013-4-9,53,47,41,48,42,39,96,85,69,30.11,29.85,7,1,19,0.22
2013-4-10,57,48,43,49,45,42,96,91,70,30.05,29.86,3,0,11,1.13
2013-4-11,45,38,32,43,36,29,95,92,87,30.16,29.93,3,0,7,0.68
2013-4-12,35,34,32,34,32,28,96,93,85,30.13,29.79,6,2,20,1.04
2013-4-13,44,37,34,41,36,33,96,94,83,29.99,29.84,6,0,20,0.17
2013-4-14,44,37,27,34,30,24,95,79,50,30.28,29.98,6,1,15,0.08
2013-4-15,58,41,26,38,31,24,94,71,44,30.38,30.24,6,1,12,0.03
2013-4-16,58,50,38,55,45,34,93,84,72,30.29,30.03,5,1,16,0.50
2013-4-17,59,48,34,43,35,30,93,65,34,30.32,30.18,5,1,15,0.14
2013-4-18,64,59,52,49,45,41,76,60,47,30.21,30.00,8,2,19,0.00
2013-4-19,70,58,41,60,51,37,90,79,62,30.00,29.50,8,2,29,0.51
2013-4-20,46,40,31,38,30,20,89,71,48,30.37,29.74,11,3,22,0.54
2013-4-21,49,36,22,27,20,17,84,56,29,30.69,30.37,4,2,13,0.01
2013-4-22,55,40,25,29,24,21,90,57,26,30.73,30.52,8,2,16,0.00
2013-4-23,53,43,30,40,32,26,91,67,49,30.53,30.15,9,2,17,0.00
2013-4-24,69,50,30,55,42,28,95,78,46,30.16,29.70,5,1,20,0.30
2013-4-25,54,43,35,41,32,26,91,66,35,30.30,29.88,6,2,23,0.30
2013-4-26,51,42,33,36,32,29,92,71,45,30.50,30.31,6,1,11,0.01
2013-4-27,63,45,27,40,32,25,93,64,32,30.51,30.32,4,1,14,0.01
2013-4-28,71,54,33,44,36,-100,94,59,26,30.34,30.11,5,1,10,0.00
2013-4-29,55,51,48,50,46,39,93,84,55,30.22,30.15,2,0,8,0.33
2013-4-30,71,57,47,52,49,45,94,76,49,30.31,30.21,4,1,10,0.05
2013-5-1,74,58,40,47,41,31,95,61,21,30.46,30.29,6,1,12,0.03
2013-5-2,79,60,39,49,40,33,90,56,23,30.48,30.30,3,1,8,0.00
2013-5-3,70,60,47,47,37,31,75,44,24,30.45,30.31,7,2,15,0.00
2013-5-4,74,57,38,48,42,36,92,61,31,30.36,30.19,4,1,12,0.00
2013-5-5,74,58,40,43,39,27,91,55,18,30.29,30.14,7,1,16,0.00
2013-5-6,76,57,36,43,37,28,91,55,19,30.26,30.08,3,1,9,0.00
2013-5-7,79,61,42,54,44,39,89,59,25,30.19,30.04,5,1,10,0.00
2013-5-8,70,59,49,61,54,46,93,83,59,30.14,29.98,6,1,16,0.15
2013-5-9,69,60,49,57,53,48,96,79,50,30.00,29.89,4,0,8,0.07
2013-5-10,75,61,48,59,51,-100,95,76,48,30.01,29.83,3,0,10,0.03
2013-5-11,63,58,50,61,54,45,94,88,75,29.85,29.68,5,1,16,0.24
2013-5-12,54,46,37,46,36,-100,95,72,37,29.91,29.70,6,2,20,0.05
2013-5-13,48,40,31,33,30,25,90,70,41,30.14,29.90,7,2,16,0.08
2013-5-14,55,41,26,36,30,25,95,68,37,30.18,30.06,4,1,14,0.01
2013-5-15,62,46,29,52,39,26,93,78,55,30.09,29.64,5,1,14,0.15
2013-5-16,74,55,38,45,21,-100,94,52,27,29.93,29.73,9,2,25,0.13
2013-5-17,68,55,42,42,35,-100,82,56,30,30.26,29.91,5,1,14,0.00
2013-5-18,72,56,37,48,42,35,92,64,33,30.33,30.21,3,0,7,0.00
2013-5-19,58,53,44,55,50,42,94,90,84,30.29,30.16,1,0,5,0.05
2013-5-20,81,64,55,65,58,53,95,82,56,30.16,29.96,3,0,7,0.01
2013-5-21,86,69,58,69,63,56,96,83,51,29.96,29.78,6,0,18,1.45
2013-5-22,81,70,62,71,66,61,96,87,65,29.85,29.75,3,0,11,1.34
2013-5-23,76,67,60,66,62,59,95,86,67,29.81,29.70,4,0,14,0.13
2013-5-24,60,47,41,59,45,39,96,91,84,30.09,29.69,6,2,18,0.55
2013-5-25,44,42,41,41,40,38,93,90,87,30.08,30.02,6,2,20,0.44
2013-5-26,58,48,40,43,39,36,91,75,47,30.17,29.97,8,3,22,0.06
2013-5-27,67,52,34,43,37,31,96,62,27,30.26,30.16,6,1,17,0.00
2013-5-28,69,55,37,54,44,35,93,71,45,30.24,30.10,3,1,8,0.00
2013-5-29,80,63,55,70,59,52,96,89,67,30.12,29.91,3,0,8,0.56
2013-5-30,84,72,55,70,64,54,97,79,55,30.13,30.06,4,1,14,0.03
2013-5-31,91,75,59,72,65,58,95,74,43,30.12,29.92,3,0,7,0.00
2013-6-1,89,76,60,68,65,59,95,71,47,29.96,29.80,4,1,14,0.00
2013-6-2,80,70,62,71,64,-100,95,86,66,29.82,29.68,2,0,14,0.40
2013-6-3,63,57,47,60,49,40,96,76,52,29.97,29.81,5,1,19,0.19
2013-6-4,67,55,43,47,43,40,90,67,44,30.18,29.97,7,2,17,0.00
2013-6-5,72,58,42,51,45,40,94,65,35,30.24,30.11,3,1,9,0.00
2013-6-6,68,57,49,56,50,46,94,79,53,30.15,30.01,5,1,14,0.92
2013-6-7,57,55,54,55,53,52,95,94,93,30.01,29.83,3,0,14,1.93
2013-6-8,65,58,54,59,56,53,96,90,80,30.08,29.78,4,1,12,0.08
2013-6-9,75,63,51,58,55,50,96,79,52,30.21,30.08,4,1,15,0.01
2013-6-10,64,58,50,59,56,49,96,92,81,30.21,29.88,3,0,12,1.73
2013-6-11,64,60,57,62,58,54,95,93,88,29.88,29.62,5,1,18,1.83
2013-6-12,72,62,54,56,53,51,94,75,50,29.88,29.71,6,1,14,0.06
2013-6-13,57,55,50,56,53,49,96,94,92,29.85,29.67,3,0,10,1.76
2013-6-14,75,62,51,60,55,50,96,78,48,29.92,29.74,6,2,18,0.09
2013-6-15,73,61,45,54,48,41,96,68,37,30.02,29.91,7,1,16,0.00
2013-6-16,70,59,48,62,54,45,95,86,60,30.00,29.72,2,0,12,0.28
2013-6-17,78,66,57,66,60,55,96,83,59,29.93,29.82,4,1,15,0.09
2013-6-18,68,59,53,59,55,52,95,88,64,30.01,29.91,2,0,7,0.07
2013-6-19,70,59,45,52,46,42,96,67,37,30.20,30.00,5,1,13,0.01
2013-6-20,76,58,42,54,46,41,95,71,40,30.29,30.20,3,1,10,0.00
2013-6-22,85,80,72,69,66,63,86,64,48,30.19,30.05,3,1,10,0.00
2013-6-23,90,74,65,73,68,63,95,83,55,30.10,29.99,3,0,10,0.66
2013-6-24,87,72,63,74,67,62,96,86,60,30.04,29.92,3,0,10,0.21
2013-6-25,84,68,59,73,66,58,96,91,67,29.99,29.79,2,0,6,0.50
2013-6-26,82,71,66,71,67,64,96,87,61,29.83,29.78,3,0,10,0.97
2013-6-27,84,70,59,71,64,58,96,84,45,29.83,29.61,3,0,11,0.64
2013-6-28,75,69,63,67,65,62,95,88,71,29.61,29.37,5,1,12,2.62
2013-6-29,79,68,60,67,63,59,96,85,60,29.69,29.49,5,1,13,0.11
2013-6-30,85,70,59,71,65,58,96,84,58,29.91,29.69,3,0,7,0.30
2013-7-1,74,68,65,70,67,64,96,94,85,30.01,29.90,2,0,6,0.79
2013-7-2,84,72,67,75,69,66,96,91,73,30.11,30.01,3,0,9,0.20
2013-7-3,88,77,68,73,70,67,96,81,57,30.18,30.10,4,0,9,0.10
2013-7-4,87,77,67,77,71,65,95,83,60,30.19,30.09,4,0,10,0.22
2013-7-5,90,76,68,76,71,67,96,86,57,30.15,30.04,4,0,12,0.63
2013-7-6,84,74,67,71,68,64,96,81,52,30.12,30.03,6,1,14,0.36
2013-7-7,88,75,65,75,69,63,95,83,62,30.07,29.90,4,0,9,1.41
2013-7-8,83,73,67,71,68,66,96,87,65,30.04,29.95,3,0,10,1.05
2013-7-9,85,74,65,72,68,64,95,81,59,30.08,29.94,4,0,12,0.80
2013-7-10,81,73,68,74,68,-100,95,88,77,29.97,29.75,2,0,7,0.85
2013-7-11,79,71,62,69,63,58,93,78,52,30.01,29.76,6,1,16,0.05
2013-7-12,80,68,56,68,60,54,95,78,54,30.18,30.01,2,0,6,0.00
2013-7-13,80,70,62,70,64,59,94,83,69,30.30,30.18,4,0,8,0.00
2013-7-14,88,76,64,74,68,63,95,79,54,30.34,30.23,3,0,9,0.00
2013-7-15,89,77,65,72,68,63,95,75,51,30.27,30.17,4,1,13,0.00
2013-7-16,90,77,63,73,68,61,94,76,51,30.25,30.16,4,1,10,0.00
2013-7-17,91,78,65,76,70,64,95,78,53,30.22,30.03,4,0,9,0.00
2013-7-18,90,80,71,77,73,69,95,80,58,30.06,29.94,5,1,13,0.02
2013-7-19,92,80,68,76,71,66,94,76,53,29.94,29.71,4,1,14,0.28
2013-7-20,80,70,62,72,64,-100,95,85,67,29.86,29.72,3,0,11,0.24
2013-7-21,80,69,58,65,61,57,96,78,52,30.00,29.87,4,0,11,0.14
2013-7-22,82,69,60,73,65,59,95,87,64,30.01,29.81,3,0,7,0.39
2013-7-23,82,71,66,71,68,64,96,88,63,29.82,29.58,3,0,11,1.88
2013-7-24,68,64,51,65,57,49,95,80,61,30.04,29.62,6,1,14,0.01
2013-7-25,74,60,44,57,50,43,96,74,46,30.13,30.05,3,1,8,0.00
2013-7-26,79,72,59,61,59,56,93,65,48,30.05,30.01,3,1,9,0.00
2013-7-27,81,69,51,65,60,50,96,75,52,30.06,29.91,4,1,11,0.00
2013-7-28,73,68,64,68,65,63,95,90,79,29.95,29.90,3,0,8,0.32
2013-7-29,77,66,55,63,58,54,96,78,48,30.12,29.95,4,1,13,0.04
2013-7-30,75,63,52,61,57,51,96,80,59,30.19,30.11,5,1,15,0.00
2013-7-31,79,66,51,63,57,50,96,76,50,30.19,30.02,3,0,7,0.00
2013-8-1,71,64,57,68,62,55,96,93,81,30.03,29.80,2,0,6,0.73
2013-8-2,77,66,56,64,60,55,97,84,53,29.90,29.84,4,0,10,0.08
2013-8-3,74,65,56,61,57,53,96,77,51,29.91,29.82,9,1,18,0.05
2013-8-4,68,59,52,60,55,51,96,86,60,30.01,29.89,6,1,13,0.13
2013-8-5,73,60,47,55,50,44,97,72,40,30.10,30.01,5,1,12,0.03
2013-8-6,77,63,46,60,53,44,95,72,42,30.14,30.08,4,0,9,0.01
2013-8-7,74,67,57,66,61,55,94,82,69,30.13,30.01,3,0,8,0.01
2013-8-8,84,73,62,72,67,61,95,82,61,30.02,29.93,4,0,10,0.00
2013-8-9,79,71,66,73,69,63,96,92,78,29.94,29.79,2,0,9,0.62
2013-8-10,73,66,53,63,55,46,94,72,40,30.10,29.88,8,2,16,0.47
2013-8-11,76,60,46,58,52,45,96,78,48,30.15,30.04,5,1,10,0.00
2013-8-12,78,64,52,63,56,51,95,79,49,30.08,29.92,3,0,10,0.00
2013-8-13,70,62,57,67,59,-100,97,91,82,29.92,29.70,4,0,11,0.74
2013-8-14,66,56,50,57,49,-100,97,84,63,30.04,29.79,7,1,13,0.23
2013-8-15,71,54,44,56,40,-100,96,78,51,30.16,30.04,4,1,12,0.01
2013-8-16,76,59,46,59,49,-100,96,76,46,30.24,30.15,3,0,9,0.01
2013-8-17,80,64,48,61,55,47,96,77,45,30.32,30.24,2,0,7,0.00
2013-8-18,77,64,54,65,57,-100,95,82,54,30.30,30.13,2,0,5,0.00
2013-8-19,79,63,55,63,48,-100,96,79,53,30.14,30.02,4,1,10,0.00
2013-8-20,81,65,51,64,57,-100,96,79,51,30.15,30.07,4,1,11,0.00
2013-8-21,84,68,54,68,61,53,96,79,48,30.19,30.05,3,0,10,0.00
2013-8-22,85,74,61,68,66,59,94,76,53,30.06,29.85,3,1,12,0.08
2013-8-23,77,66,53,65,57,51,97,76,41,30.20,29.93,3,0,8,0.09
2013-8-24,77,60,46,58,52,45,96,77,44,30.37,30.20,3,0,8,0.01
2013-8-25,81,63,49,63,54,-100,95,76,42,30.41,30.16,3,0,9,0.00
2013-8-26,74,67,61,68,64,60,96,91,77,30.18,29.91,2,0,8,0.18
2013-8-27,77,69,62,69,66,61,97,89,75,29.95,29.89,2,0,7,0.24
2013-8-28,87,77,67,71,68,65,95,74,57,29.93,29.83,2,0,8,0.02
2013-8-29,82,70,60,71,65,59,97,87,62,30.03,29.93,3,0,8,0.08
2013-8-30,83,69,60,72,65,59,97,87,59,30.00,29.80,3,0,7,0.06
2013-8-31,80,70,66,74,68,65,97,93,77,29.84,29.72,2,0,6,0.89
2013-9-1,84,72,66,72,66,-100,97,86,64,29.86,29.79,2,0,6,0.01
2013-9-2,82,70,61,71,66,60,97,89,67,29.80,29.65,3,0,12,1.22
2013-9-3,70,63,59,61,59,56,98,88,63,29.89,29.75,4,1,11,0.64
2013-9-4,75,65,59,59,57,53,96,78,48,29.98,29.89,4,1,14,0.04
2013-9-5,67,59,44,61,50,40,96,74,42,30.22,29.91,4,1,13,0.03
2013-9-6,67,51,37,50,42,35,94,74,40,30.31,30.15,4,1,9,0.01
2013-9-7,69,56,45,57,50,43,95,84,52,30.15,29.91,3,0,6,0.00
2013-9-8,67,59,44,59,48,-100,96,71,40,30.15,29.84,5,1,13,0.00
2013-9-9,72,54,37,57,46,35,95,77,44,30.26,30.10,3,0,7,0.00
2013-9-10,83,66,53,74,63,51,97,90,71,30.10,29.99,1,0,7,1.24
2013-9-11,92,74,64,77,69,63,97,84,53,30.09,29.93,2,0,10,0.82
2013-9-12,81,69,63,71,66,62,97,91,70,29.97,29.69,2,0,11,0.95
2013-9-13,65,58,49,64,54,45,96,87,76,29.93,29.66,5,1,12,0.04
2013-9-14,59,51,42,48,45,40,95,80,62,30.17,29.93,5,1,12,0.00
2013-9-15,67,48,37,53,42,-100,96,86,58,30.23,30.09,2,0,7,0.00
2013-9-16,62,53,40,54,48,37,97,85,53,30.37,30.09,3,1,11,0.12
2013-9-17,63,44,32,45,38,31,96,81,49,30.52,30.36,2,0,7,0.01
2013-9-18,48,39,36,43,38,35,97,95,91,30.39,30.19,0,0,3,0.01
2013-9-19,78,57,40,58,49,39,97,78,40,30.21,30.07,2,0,8,0.01
2013-9-20,80,60,44,62,53,43,97,80,53,30.11,29.93,2,0,7,0.01
2013-9-21,77,67,51,61,57,50,97,73,46,29.86,29.64,4,1,14,0.30
2013-9-22,58,53,45,57,46,-100,96,81,60,29.98,29.65,7,2,19,0.35
2013-9-23,55,46,37,43,39,35,95,77,60,30.14,29.98,5,1,14,0.01
2013-9-24,65,47,32,48,40,31,97,79,41,30.14,29.97,5,1,12,0.00
2013-9-25,70,52,34,52,45,33,97,80,49,30.05,29.92,4,1,12,0.00
2013-9-26,67,52,42,53,48,41,96,84,58,30.19,30.03,3,0,7,0.00
2013-9-27,61,51,38,52,47,37,97,87,69,30.33,30.19,3,0,7,0.00
2013-9-28,72,54,38,54,46,37,97,78,40,30.40,30.28,3,0,8,0.01
2013-9-29,73,52,39,54,44,-100,97,79,49,30.29,30.10,2,0,8,0.01
2013-10-13,70,62,56,53,52,50,84,70,55,30.41,30.30,4,1,10,0.00
2013-10-14,59,55,52,55,52,48,94,87,80,30.35,30.28,2,0,5,0.01
2013-10-15,70,57,47,57,52,46,97,87,63,30.30,30.10,2,0,7,0.01
2013-10-16,65,55,48,56,50,46,97,86,61,30.10,29.87,2,0,7,0.03
2013-10-17,66,56,50,54,50,47,97,82,53,29.91,29.65,3,0,8,0.95
2013-10-18,60,51,38,51,44,36,97,80,44,29.96,29.65,8,1,18,0.80
2013-10-19,62,48,36,47,41,35,96,80,47,29.97,29.71,2,0,11,0.03
2013-10-20,56,46,36,47,37,-100,95,75,47,30.05,29.71,5,1,21,0.09
2013-10-21,66,50,38,46,41,36,95,72,38,30.12,29.90,3,0,10,0.00
2013-10-22,55,47,33,47,39,30,94,73,57,29.90,29.77,4,1,13,0.04
2013-10-23,51,40,29,36,33,27,94,79,51,29.83,29.68,3,1,8,0.01
2013-10-24,47,37,33,35,33,29,96,86,52,29.98,29.79,7,1,17,0.28
2013-10-25,45,39,34,36,33,31,94,80,62,30.19,29.98,4,1,13,0.25
2013-10-26,45,40,34,36,32,28,96,75,51,30.19,29.86,4,1,14,0.01
2013-10-27,45,39,34,38,34,-100,95,84,69,30.11,29.84,5,1,14,0.04
2013-10-28,51,38,26,39,30,-100,96,79,47,30.42,30.10,7,1,14,0.01
2013-10-29,46,31,20,27,23,18,94,75,37,30.52,30.40,4,0,8,0.00
2013-10-30,52,38,31,41,33,24,94,81,64,30.40,30.24,2,0,7,0.03
2013-10-31,55,40,30,54,39,29,98,96,94,30.27,29.67,0,0,3,0.94
2013-11-1,68,59,49,60,51,40,98,77,38,29.71,29.38,9,2,22,0.55
2013-11-2,56,45,36,45,40,35,96,84,64,29.87,29.65,4,0,11,0.01
2013-11-3,41,34,23,36,24,-100,82,67,41,30.54,29.88,5,1,13,0.00
2013-11-4,42,28,18,23,20,16,92,74,45,30.73,30.56,2,0,6,0.00
2013-11-5,53,36,23,36,28,20,90,75,51,30.69,30.48,2,0,7,0.00
2013-11-6,60,47,35,49,41,32,92,78,57,30.48,29.93,4,1,11,0.03
2013-11-7,54,45,35,52,41,33,96,88,70,29.94,29.79,6,2,18,0.68
2013-11-8,39,34,30,33,30,26,94,86,66,30.22,29.92,5,2,17,0.14
2013-11-9,42,34,26,33,27,-100,90,79,62,30.28,29.94,1,0,6,0.01
2013-11-10,47,38,35,40,35,29,96,88,67,30.06,29.80,8,2,19,0.36
2013-11-11,42,38,30,36,31,26,92,78,66,30.18,29.96,7,2,18,0.11
2013-11-12,33,26,23,31,21,15,92,80,68,30.36,30.00,5,2,15,0.01
2013-11-13,32,24,19,21,17,12,91,73,57,30.43,30.19,6,1,15,0.00
2013-11-14,47,37,22,26,23,19,93,60,41,30.20,30.11,5,1,14,0.00
2013-11-15,56,47,29,28,25,22,81,44,27,30.24,30.14,2,1,7,0.00
2013-11-16,60,44,30,37,30,-100,88,63,38,30.35,30.23,2,0,5,0.00
2013-11-17,55,47,34,53,44,32,97,90,83,30.23,29.68,2,0,6,0.12
2013-11-18,59,49,37,54,40,28,91,72,53,29.79,29.48,6,2,19,0.14
2013-11-19,36,31,25,30,23,17,91,72,64,30.46,29.79,7,2,16,0.01
2013-11-20,38,24,15,19,16,12,91,74,43,30.68,30.46,1,0,7,0.00
2013-11-21,41,28,15,29,22,13,92,77,50,30.68,30.41,1,0,3,0.00
2013-11-22,43,37,33,42,35,29,97,94,82,30.40,29.95,9,0,24,0.27
2013-11-23,38,29,19,36,23,-100,93,81,53,30.11,29.89,7,3,18,0.12
2013-11-24,22,16,10,16,6,2,89,67,47,30.39,30.00,8,3,22,0.00
2013-11-25,32,18,5,20,11,0,85,74,57,30.49,30.25,4,0,10,0.00
2013-11-26,34,30,25,31,26,16,95,88,57,30.31,29.98,3,0,11,0.02
2013-11-27,38,33,27,37,31,23,97,93,86,29.94,29.49,6,2,20,0.89
2013-11-28,26,20,13,23,13,8,91,77,58,30.50,29.70,7,2,22,0.01
2013-11-29,27,16,5,17,10,2,91,80,58,30.83,30.49,4,0,12,0.00
2013-11-30,26,14,0,17,6,-100,90,75,61,30.85,30.41,4,0,10,0.00
2013-12-1,37,28,19,28,24,16,92,84,70,30.40,30.07,0,0,2,0.01
2013-12-2,36,32,29,33,30,27,95,93,88,30.07,29.93,0,0,1,0.02
2013-12-3,37,31,24,34,29,23,96,92,82,30.06,29.96,2,0,8,0.05
2013-12-4,43,28,20,33,25,19,95,89,65,30.19,30.07,1,0,4,0.02
2013-12-5,46,36,27,45,33,26,97,88,84,30.18,29.93,4,0,12,0.03
2013-12-6,42,34,30,40,32,27,94,89,83,30.23,29.99,4,1,10,0.21
2013-12-7,30,28,24,28,22,-100,92,83,75,30.54,30.20,4,1,13,0.01
2013-12-8,26,24,23,21,19,18,89,82,73,30.64,30.45,3,0,8,0.00
2013-12-9,36,29,23,33,26,19,95,88,77,30.45,29.94,5,2,17,0.05
2013-12-10,32,26,18,26,19,13,90,75,63,30.04,29.90,5,2,16,0.03
2013-12-11,27,22,17,17,13,8,91,68,48,30.24,30.06,8,3,22,0.00
2013-12-12,18,13,0,14,7,-3,89,78,64,30.39,30.08,5,1,10,0.00
2013-12-13,23,16,7,18,10,0,88,76,62,30.47,30.02,7,2,19,0.00
2013-12-14,13,9,5,9,2,-100,89,77,67,30.61,30.10,6,1,12,0.00
2013-12-15,25,20,12,21,17,9,91,88,80,30.11,29.65,4,1,13,0.00
2013-12-16,22,13,-3,17,7,-6,88,78,64,30.29,29.80,6,1,14,0.00
2013-12-17,11,1,-9,8,-2,-12,88,86,83,30.29,30.09,0,0,3,0.00
2013-12-18,30,20,7,22,15,4,90,81,70,30.11,30.04,5,1,12,0.00
2013-12-19,39,31,23,29,24,19,88,77,58,30.13,29.99,4,0,12,0.06
2013-12-20,38,34,32,37,32,29,97,93,87,30.12,29.92,0,0,3,0.77
2013-12-21,43,38,36,42,34,-100,98,94,97,29.92,29.85,1,0,3,1.31
2013-12-22,57,42,35,53,41,34,98,94,84,30.01,29.71,5,1,16,0.41
2013-12-23,42,36,28,40,34,22,97,91,79,30.24,30.00,5,1,14,0.11
2013-12-24,27,21,10,21,15,4,89,79,66,30.41,30.19,5,1,12,0.01
2013-12-25,17,10,1,8,3,-4,80,71,59,30.60,30.42,4,1,11,0.00
2013-12-26,29,22,16,25,19,7,93,86,68,30.43,30.16,0,0,3,0.00
2013-12-27,29,25,19,25,20,14,90,82,77,30.33,30.25,2,0,9,0.00
2013-12-28,38,29,19,32,24,-100,95,86,74,30.24,30.09,3,0,6,0.17
2013-12-29,34,31,23,32,30,22,97,95,91,30.04,29.67,1,0,2,0.02
2013-12-30,34,19,4,33,14,1,97,82,65,30.26,29.72,8,2,21,0.04
2013-12-31,20,12,4,15,7,1,90,80,61,30.27,30.06,8,1,19,0.02
2014-1-1,19,14,9,11,8,2,88,79,67,30.44,30.25,2,0,7,0.00
2014-1-2,12,8,6,10,5,3,90,87,83,30.39,29.97,0,0,4,0.00